This is the latest recevied weather packets stored in our database for station/object KG5CK-1. If no packets are shown the sender has not sent any weather packets the latest 10 day(s).
| Time | Temp. | Humidity | Pressure | Rain* | Wind** | Luminosity | Snow |
|---|---|---|---|---|---|---|---|
| 1777911063 | 22.78° C | 56% | 1008.6 hPa | 0 mm | 2.24 m/s, 154° | - | - |
| 1777911002 | 22.78° C | 55% | 1009 hPa | 0 mm | 3.13 m/s, 171° | - | - |
| 1777910942 | 22.78° C | 55% | 1009 hPa | 0 mm | 3.13 m/s, 171° | - | - |
| 1777910883 | 22.78° C | 55% | 1009 hPa | 0 mm | 3.13 m/s, 171° | - | - |
| 1777910823 | 22.78° C | 55% | 1009 hPa | 0 mm | 3.13 m/s, 171° | - | - |
| 1777910763 | 22.78° C | 55% | 1009 hPa | 0 mm | 3.13 m/s, 171° | - | - |
| 1777910703 | 22.78° C | 56% | 1008.8 hPa | 0 mm | 4.02 m/s, 254° | - | - |
| 1777910642 | 22.78° C | 56% | 1008.8 hPa | 0 mm | 4.02 m/s, 254° | - | - |
| 1777910583 | 22.78° C | 56% | 1008.8 hPa | 0 mm | 4.02 m/s, 254° | - | - |
| 1777910522 | 22.78° C | 56% | 1008.8 hPa | 0 mm | 4.02 m/s, 254° | - | - |
| 1777910463 | 22.78° C | 56% | 1008.8 hPa | 0 mm | 4.02 m/s, 254° | - | - |
| 1777910403 | 22.78° C | 58% | 1009.1 hPa | 0 mm | 1.79 m/s, 140° | - | - |
| 1777910342 | 22.78° C | 58% | 1009.1 hPa | 0 mm | 1.79 m/s, 140° | - | - |
| 1777910282 | 22.78° C | 58% | 1009.1 hPa | 0 mm | 1.79 m/s, 140° | - | - |
| 1777910224 | 22.78° C | 58% | 1009.1 hPa | 0 mm | 1.79 m/s, 140° | - | - |
| 1777910162 | 22.78° C | 58% | 1009.1 hPa | 0 mm | 1.79 m/s, 140° | - | - |
| 1777910103 | 22.78° C | 60% | 1008.8 hPa | 0 mm | 0.89 m/s, 80° | - | - |
| 1777910043 | 22.78° C | 60% | 1008.8 hPa | 0 mm | 0.89 m/s, 80° | - | - |
| 1777909983 | 22.78° C | 60% | 1008.8 hPa | 0 mm | 0.89 m/s, 80° | - | - |
| 1777909922 | 22.78° C | 60% | 1008.8 hPa | 0 mm | 0.89 m/s, 80° | - | - |
| 1777909863 | 22.78° C | 60% | 1008.8 hPa | 0 mm | 0.89 m/s, 80° | - | - |
| 1777909803 | 22.78° C | 59% | 1008.7 hPa | 0 mm | 1.34 m/s, 100° | - | - |
| 1777909743 | 22.78° C | 59% | 1008.7 hPa | 0 mm | 1.34 m/s, 100° | - | - |
| 1777909683 | 22.78° C | 59% | 1008.7 hPa | 0 mm | 1.34 m/s, 100° | - | - |
| 1777909623 | 22.78° C | 59% | 1008.7 hPa | 0 mm | 1.34 m/s, 100° | - | - |
* Rain latest hour (hover to see other rain measurements)
** Current wind speed in m/s (hover to see current wind gust speed)